Dewpoint
38 38 38 40 43 43 39 38 31 43 44 33 32 29 28 28 25 25 26 27 30 28 33 33 33 31 30 28 30 32 36 31 24 27 32 31 30 32 31 20 20 28 28 8
36 36 38 40 42 43 40 34 33 40 40 28 28 30 28 27 22 26 28 29 29 35 34 34 36 35 36 41 36 32 35 32 28 29 30 30 29 34 34 33 30 18 5 2
35 36 37 39 41 42 40 33 27 32 37 35 32 32 30 27 27 26 34 33 30 31 33 36 35 35 38 43 40 32 34 34 29 26 26 29 28 29 34 25 20 21 19 22
33 35 37 40 40 42 40 33 29 29 25 27 28 29 29 27 22 34 34 36 31 32 34 34 35 38 38 39 40 36 32 27 31 30 29 26 25 26 32 26 24 16 18 18
33 34 38 40 40 41 35 30 30 33 29 28 26 28 27 27 30 32 29 32 33 36 34 36 35 38 37 35 27 31 28 24 26 25 27 23 19 23 30 29 26 22 31 28
34 33 37 39 40 41 34 33 35 33 27 25 24 22 22 28 27 30 31 30 33 33 35 39 38 39 43 42 39 27 24 25 27 27 30 19 16 16 22 27 28 26 23 24
35 32 36 38 39 40 38 37 36 32 26 24 23 23 24 28 30 28 30 33 33 35 41 39 40 40 40 41 38 27 25 26 25 22 23 16 20 26 20 18 24 28 27 26
34 33 35 38 39 39 39 38 36 33 27 27 27 23 27 30 32 31 31 35 35 41 40 37 34 36 35 33 28 26 28 29 24 20 20 22 21 16 8 15 19 24 27 25
35 34 35 38 39 38 39 37 38 36 30 24 27 30 30 30 32 30 30 35 36 40 39 36 31 26 24 23 22 26 29 30 24 24 21 19 17 10 13 17 13 20 23 22
35 33 33 35 37 38 38 37 37 35 31 30 30 29 28 33 34 31 33 33 33 39 35 33 32 29 26 22 22 24 28 29 23 25 23 24 21 13 15 8 18 22 21 21
35 34 33 35 36 38 39 37 38 36 32 31 32 32 32 32 33 30 33 29 32 31 33 33 34 33 30 24 24 23 26 25 24 26 24 20 21 14 13 27 23 22 24 23
35 33 33 35 37 38 39 35 37 38 35 33 35 35 36 35 35 35 35 32 32 33 30 34 35 36 32 28 21 25 24 26 25 24 24 31 20 25 25 25 23 26 25 28
35 33 34 36 37 38 39 38 37 37 34 33 32 29 29 33 34 34 34 36 35 35 35 31 34 36 38 27 28 23 26 30 29 26 27 30 21 25 22 23 22 25 30 28
34 33 35 37 38 38 39 39 38 38 35 30 29 31 31 34 33 34 37 36 38 37 36 32 34 36 39 35 34 25 26 26 27 27 27 28 23 23 24 23 21 23 30 29
33 33 35 37 38 39 40 41 40 40 34 30 30 34 29 31 34 34 37 37 36 36 32 34 36 40 40 38 37 27 27 27 26 24 28 27 28 26 24 23 22 22 27 30
34 35 36 37 39 40 40 33 41 41 40 34 27 30 30 30 36 34 37 38 38 37 34 34 39 38 38 34 29 28 27 29 29 30 33 27 27 29 27 23 22 23 25 29
35 37 38 39 40 40 35 33 39 42 41 34 29 24 27 27 36 38 38 38 37 37 35 36 36 39 37 36 31 31 30 28 28 28 30 27 25 23 26 26 23 24 24 28
36 38 39 40 41 42 39 42 42 42 37 36 29 25 24 33 34 35 38 37 37 36 34 37 38 37 40 36 35 34 32 30 28 27 28 29 29 27 24 24 25 21 22 26
37 38 39 40 40 37 39 43 43 40 37 31 32 24 20 32 32 36 36 36 32 36 34 34 37 36 35 37 36 35 33 30 26 28 27 27 27 27 27 23 24 21 23 25
38 39 36 31 35 41 41 39 37 36 36 35 29 26 22 32 33 33 36 37 34 32 34 37 35 33 37 38 38 38 35 34 33 27 26 27 27 29 29 29 26 23 24 25
37 33 32 39 42 39 33 31 29 31 29 33 28 26 25 34 27 33 37 33 36 32 34 34 33 32 32 34 38 38 37 34 33 33 33 33 33 33 32 30 31 28 25 26
38 37 41 41 37 32 29 27 28 29 26 29 24 23 25 32 38 35 36 34 35 31 37 33 30 30 32 33 34 35 37 38 37 33 33 33 33 35 34 34 33 31 29 28
39 36 33 31 31 26 24 23 24 27 28 26 25 24 26 36 36 33 32 31 30 36 34 32 32 31 32 34 35 36 36 36 38 37 34 34 35 37 35 34 35 34 31 31
31 30 26 26 25 26 26 24 22 23 22 25 26 25 26 34 32 32 29 31 34 28 26 28 29 30 32 32 37 37 37 37 37 37 38 36 36 36 37 35 34 33 32 33
30 31 26 27 28 29 28 25 23 23 21 23 24 25 27 30 31 32 30 29 29 26 23 24 29 29 29 29 32 34 37 38 37 37 38 38 37 37 36 37 34 34 33 33
31 31 30 30 27 28 29 26 24 24 22 24 25 26 28 25 27 28 26 29 26 25 34 38 36 33 34 35 36 38 38 37 37 38 39 38 38 37 38 38 39 35 33 33
31 30 34 32 28 28 29 28 28 25 22 21 26 25 27 27 26 27 31 31 29 32 35 38 34 35 33 34 34 35 37 38 39 40 40 39 40 40 39 38 40 37 36 34
Wind_Speed
9 10 12 14 16 22 9 6 3 5 3 2 2 3 4 10 21 19 18 14 17 18 20 16 11 6 20 11 16 15 10 5 5 4 5 7 3 9 9 3 5 2 3 7
9 10 12 12 13 15 7 8 4 6 3 3 5 9 19 22 21 12 13 14 19 13 11 10 8 14 3 15 10 15 13 8 8 2 5 3 6 8 7 13 5 9 7 4
9 10 10 11 11 13 8 4 5 2 4 6 10 11 9 12 13 16 12 19 17 16 18 10 13 23 10 5 16 4 3 4 9 17 8 9 8 16 21 14 9 9 13 4
9 9 9 9 9 10 5 0 3 5 6 10 16 13 13 21 24 6 10 11 9 14 7 10 3 17 12 12 15 13 13 9 13 8 4 8 7 14 24 25 14 13 6 19
8 8 7 7 7 8 2 3 2 6 9 12 13 10 10 19 13 7 10 12 23 21 6 13 17 19 8 14 14 17 7 5 9 6 5 8 6 15 24 24 15 14 7 10
8 8 7 7 6 4 2 2 4 2 7 7 10 7 13 20 25 8 8 16 17 20 18 19 29 25 17 22 19 12 12 7 5 3 10 0 11 22 22 20 22 27 24 20
8 9 6 6 5 2 4 4 6 4 6 9 13 19 19 21 22 24 14 12 14 9 26 29 16 15 17 28 34 12 11 9 4 4 8 8 11 9 20 23 21 24 13 16
8 8 7 6 6 5 4 4 3 3 6 9 16 16 19 19 24 14 16 6 11 18 13 8 9 6 15 20 18 17 9 6 6 6 9 10 9 6 3 8 15 23 28 20
8 9 8 7 6 7 5 8 6 5 5 10 12 15 14 19 15 12 8 12 14 5 5 1 3 4 5 7 11 10 11 11 8 4 4 4 3 3 5 4 4 8 24 24
10 9 10 9 9 10 7 5 6 6 6 12 10 10 12 7 7 9 8 13 13 10 4 3 1 6 5 9 12 14 9 4 8 3 3 8 3 4 3 3 3 7 4 20
12 12 13 12 12 12 8 6 9 9 8 15 16 17 18 17 9 9 10 10 8 9 4 3 3 5 4 5 12 14 8 9 7 4 4 9 7 4 3 3 1 5 5 8
13 14 14 14 13 14 12 8 6 11 13 11 18 20 21 20 18 16 3 2 1 4 7 9 9 4 5 1 8 12 7 8 10 11 8 7 4 4 5 5 2 5 3 10
15 16 15 15 16 16 15 12 10 7 10 17 20 23 29 21 27 24 12 5 7 4 2 6 7 6 7 2 3 12 3 6 5 5 7 11 9 9 4 6 5 5 11 25
16 17 16 17 18 18 17 13 11 11 6 7 12 15 20 11 19 20 19 8 6 4 4 8 9 6 5 5 7 8 7 8 6 4 5 10 9 11 10 5 4 4 15 23
18 18 17 19 20 20 17 13 12 15 11 6 6 20 27 22 19 20 20 14 7 3 4 7 6 3 5 7 9 4 8 8 13 8 10 4 11 16 13 11 7 4 13 16
18 18 19 22 21 18 9 6 16 23 19 5 7 7 11 16 14 20 19 14 6 4 4 7 8 12 6 6 5 4 16 14 10 3 11 10 7 14 12 15 13 9 11 18
18 19 22 23 22 15 8 6 3 26 19 4 4 8 8 19 11 7 6 8 5 6 5 7 8 9 3 4 6 5 7 14 7 12 15 7 5 5 13 12 17 14 14 13
19 21 23 23 22 20 21 23 18 24 9 5 5 7 6 7 7 8 8 8 8 7 5 6 7 7 8 8 17 23 15 10 11 11 5 6 5 10 9 5 17 18 17 15
20 21 22 17 7 5 7 9 20 15 6 7 6 6 5 11 11 7 8 8 8 7 9 7 6 9 11 11 17 19 10 10 8 9 9 6 5 5 8 9 16 20 19 18
17 9 5 5 5 8 13 4 12 8 6 5 6 10 14 3 4 12 8 8 7 6 12 6 9 13 15 15 19 21 17 12 9 11 13 11 11 12 12 9 13 22 19 21
3 4 5 3 13 4 2 5 6 7 6 6 8 14 11 7 11 7 9 5 6 5 8 15 6 7 19 26 21 19 16 14 15 14 14 14 10 10 11 12 11 16 20 23
4 6 4 4 5 3 5 9 5 6 8 8 14 20 15 3 4 5 3 5 3 6 14 7 4 7 16 23 27 29 29 24 20 13 10 9 10 10 12 12 14 15 19 23
8 6 6 6 6 8 9 11 6 9 5 9 11 14 12 4 3 3 3 4 7 4 5 4 6 7 6 16 20 22 24 25 17 18 18 14 12 11 14 13 15 16 16 22
6 6 8 8 7 9 9 13 12 11 5 14 17 13 10 5 5 3 3 5 6 4 4 4 2 8 10 8 18 20 20 21 25 23 16 18 20 18 12 13 14 15 17 21
7 6 9 12 10 10 14 16 16 18 18 9 16 10 7 6 5 5 3 4 6 6 4 7 11 17 18 16 10 6 9 18 23 22 22 24 22 20 20 16 17 18 17 21
5 7 5 8 14 13 15 16 17 18 20 12 11 6 3 6 7 6 8 4 5 2 8 7 6 10 10 10 11 9 10 11 13 16 19 21 23 25 23 19 20 22 24 24
7 7 11 11 7 13 12 12 13 21 19 18 7 10 10 7 6 8 10 7 8 8 11 13 9 9 9 12 14 14 12 11 8 10 14 21 21 21 21 24 23 23 24 27
Wind_Direction
354 352 355 352 354 345 9 336 328 180 153 1 192 238 224 280 299 304 296 284 291 282 293 302 298 284 211 301 203 166 144 83 155 145 48 342 157 156 136 213 217 178 147 278
347 350 356 353 360 9 333 340 284 233 135 278 275 282 306 316 304 327 314 293 303 328 330 305 301 291 44 7 276 142 155 156 126 34 337 271 209 198 145 129 135 196 174 242
349 346 346 345 353 357 349 323 328 329 173 266 302 322 301 324 311 310 332 299 266 297 302 253 296 311 312 52 283 87 270 178 171 199 216 150 198 194 171 172 188 182 220 254
334 333 339 340 340 351 343 277 288 322 302 324 326 295 281 298 314 352 330 312 282 280 296 305 354 295 290 333 242 196 179 223 222 253 188 155 186 180 182 199 186 193 225 222
332 326 337 341 349 340 339 315 314 357 303 311 330 333 311 325 344 323 324 341 330 326 293 300 317 321 324 264 201 214 195 218 185 241 263 176 234 201 191 204 197 217 198 249
316 319 322 327 342 350 297 274 297 239 271 301 300 283 315 325 311 302 283 305 323 321 300 308 303 274 269 266 287 207 178 177 119 245 288 336 276 246 207 203 201 203 219 234
297 306 294 300 320 322 319 327 332 294 281 298 291 307 320 332 329 306 313 331 315 310 325 313 286 290 258 250 262 187 178 172 148 153 156 229 243 262 222 220 210 199 208 207
292 299 295 293 295 302 285 284 267 277 280 312 304 304 329 323 329 331 309 331 314 320 310 300 334 249 233 229 185 191 192 141 136 147 207 286 298 183 205 205 251 200 199 200
274 289 279 278 275 287 284 267 240 266 282 256 289 321 313 313 317 311 298 333 308 275 258 276 244 247 158 145 158 162 101 100 127 149 188 247 175 87 359 28 236 31 184 192
268 280 274 265 268 273 260 266 286 255 263 272 260 269 298 332 301 303 322 326 337 345 297 247 224 279 164 155 160 168 151 123 166 173 255 283 228 128 13 155 237 344 23 180
259 273 271 264 267 270 266 260 234 226 269 279 275 280 289 301 281 301 318 330 15 326 298 299 265 267 289 164 172 178 157 148 176 174 214 265 171 104 173 217 211 322 309 167
255 274 267 262 265 266 266 266 243 250 245 270 302 280 263 263 273 296 213 260 76 305 338 353 317 282 274 88 159 161 170 174 173 186 213 226 161 127 115 63 72 337 256 144
257 270 266 263 266 265 258 258 261 275 263 274 256 261 266 242 241 243 241 181 185 159 98 294 283 292 332 245 233 170 228 157 190 172 242 182 174 136 123 86 62 9 110 132
265 268 265 268 269 272 267 254 241 223 277 272 272 249 253 256 233 234 211 208 145 153 184 243 263 285 329 313 298 168 175 180 193 243 299 158 189 190 174 167 71 54 126 129
268 267 267 271 275 274 273 253 232 223 213 277 294 317 292 262 239 239 199 198 168 161 279 256 256 277 295 319 305 244 181 184 184 216 203 190 203 197 190 167 156 153 128 132
264 267 270 274 273 266 256 256 221 214 209 251 267 287 285 294 319 201 182 185 157 166 257 272 263 251 278 262 263 232 194 186 179 250 149 134 110 173 171 170 168 158 137 148
268 271 274 276 265 250 208 223 297 184 171 229 263 267 246 233 179 153 152 172 173 196 250 239 259 298 239 290 272 313 206 184 172 125 115 114 152 161 174 173 172 156 159 153
273 279 281 277 273 268 242 226 245 158 151 187 224 266 279 130 161 176 163 179 183 215 237 257 256 262 210 241 255 268 283 306 164 159 162 124 154 174 167 166 164 158 165 166
285 290 296 291 240 182 166 147 159 176 153 191 213 212 266 179 185 153 177 176 205 222 220 219 268 219 225 212 234 271 266 269 231 188 199 191 176 167 171 177 167 169 177 172
296 305 234 224 211 174 99 90 173 180 219 239 239 204 235 163 193 189 183 188 212 226 220 194 213 248 252 235 236 258 267 261 260 214 222 216 221 216 213 204 189 184 184 179
211 229 216 173 149 95 131 165 186 185 206 221 205 221 247 193 208 239 203 214 211 224 198 182 232 249 219 228 237 241 264 251 252 243 238 220 214 224 203 209 212 193 186 180
258 266 195 143 170 151 184 182 192 200 213 194 193 200 211 186 103 252 276 255 228 244 149 196 255 244 225 220 221 229 238 246 245 231 237 238 237 221 203 208 220 209 192 179
268 238 171 178 175 189 196 191 190 180 218 173 169 178 177 110 115 231 271 259 238 275 201 223 233 293 264 226 225 232 234 228 232 239 231 232 247 247 212 220 216 201 185 178
230 201 193 200 179 215 188 185 174 197 218 169 172 174 181 124 161 213 248 264 279 252 206 212 223 257 262 251 224 228 232 221 223 233 230 226 233 241 240 211 192 188 180 177
229 208 205 195 220 211 206 193 185 189 208 214 171 168 174 139 160 210 239 254 245 216 209 232 235 246 246 259 274 245 230 222 221 223 228 231 228 229 235 224 200 191 181 177
228 229 223 200 193 225 216 211 199 187 189 196 163 126 230 205 187 178 211 247 222 268 7 11 10 35 33 27 12 346 305 257 231 224 217 221 221 221 221 217 208 193 185 186
210 210 232 261 210 216 206 215 209 181 185 198 167 172 193 195 205 196 186 214 247 297 341 349 325 338 338 349 339 341 341 330 308 265 242 229 222 215 209 211 207 198 192 190